Location: Carthage
(33.8834°N, 106.6595°W)
Time: 10:52:55
(UTC+00:00)

Cosmos 2278 - Pass Details

Date: 13 February 2026
Orbit: 839 x 850 km, 71.1° (Epoch: 11 March)

Event Time Altitude Azimuth Distance (km) Brightness Sun altitude
Rises 13:16:25 0° 197° (SSW) 3,376 6.8 -8.2°
Reaches altitude 10° 13:18:50 10° 197° (SSW) 2,444 6.1 -7.7°
Maximum altitude 13:24:27 85° 110° (ESE) 845 3.8 -6.6°
Drops below altitude 10° 13:30:06 10° 22° (NNE) 2,456 6.3 -5.4°
Sets 13:32:33 0° 22° (NNE) 3,394 7.0 -5.0°
